STARLINK-30498, 57971

Orbit data source: Space-Track

STARLINK-30498, 57971 is a payload satellite owned by SpaceX/Seattle (US) in LEO that was launched on Sat, 30 Sep 2023 UTC via an FALCON 9 launch vehicle from the Air Force Eastern Test Range (AFETR). Payload-class satellites include a variety of spacecraft equipped with specific instruments for various scientific and technological missions. These include communications satellites like Starlink; space stations such as the ISS; scientific satellites like the Hubble; Earth observation satellites from companies like Planet Labs, Umbra, and HawkEye 360; GPS; miniature CubeSats for education and research; and military/defense satellites.

Loading next visibility...
Identifier
57971, 2023-151H
Orbit
LEO
Country
Flag of USUS
Related business
Manufacturer
SpaceX/Seattle
Mission
Operational Commercial Communications
Bus & Motor
STARLINK V2M, Unknown motor
Mass
730 kg wet, ~700 kg dry
Launch date (UTC)
2023-09-30 (3 years ago)
Launch vehicle
FALCON 9
Launch site
Air Force Eastern Test Range (AFETR)
Object type
Payload
Rocket body
Debris
Shape & HBR
Box + 2 Pan, 17.7 m
Radar Cross Section
33.884 m², Large (>1 m²)

Expand to show TLE details & history
Last TLE update: 15 hours ago

TLE from 15 hours ago
0 STARLINK-30498
1 57971U 23151H   26192.77240458 -.00000814  00000-0 -20059-4 0  9993
2 57971  43.0057 355.2066 0001584 273.4347  86.6324 15.27575153154746
Epoch: 2026-07-11T18:32Z
TLE epoch observation values (Epoch: 2026-07-11T18:32:15.755Z)
Latitude
Longitude
147.46013°
Altitude
482.776 km
Speed
7.626 km/s
True Right ascension
23h 40m 49s
True Declination
0° 00' 00"
Sunlit
Object was in full shadow at epoch
Visualization orbit readout
Latitude
Unknown
Longitude
Unknown
Altitude
Unknown
Speed
Unknown
Apparent Right ascension
Unknown
Apparent Declination
Unknown
Sunlit
N/A
Visualization observer readout
Local Sidereal Time
22:02:58
Azimuth
Unknown
Elevation
Unknown
Doppler factor
Unknown
Orbital elements
Apogee altitude
486.095 km
Perigee altitude
483.921 km
Semi-major axis
6,863.145 km
Eccentricity
0.00016
Inclination
43.0057°
RAAN
355.2066°
Arg. of periapsis
273.4347°
True anomaly
86.65052°
Mean anomaly
86.6324°
Eccentric anomaly
86.64146°
Mean motion
3.81732 °/min
Orbital period
94.31 mins
BSTAR
-0.000020059
Loading maneuver chart data...
Computing Atmospheric mass density...
Loading historical data...
Loading historical data...
Loading historical data...
Loading historical data...
Loading historical data...
Loading historical data...
Loading historical data...

Documentation

Showing up to 5 results
|